Location: �perlecques
(50.8057°N, 2.1521°E)
Time: 17:11:49
(UTC+00:00)

ATLAS 5 CENTAUR R/B - Pass Details

Date: 09 April 2020
Orbit: 543 x 1116 km, 63.4° (Epoch: 01 May)

Event Time Altitude Azimuth Distance (km) Brightness Sun altitude
Rises 23:30:12 0° 298° (WNW) 2,975 5.5 -31.0°
Reaches altitude 10° 23:32:56 10° 315° (NW) 2,154 4.9 -31.0°
Maximum altitude 23:36:37 21° 4° (N) 1,676 4.4 -31.1°
Drops below altitude 10° 23:40:43 10° 52° (NE) 2,434 5.0 -31.1°
Sets 23:44:03 0° 68° (ENE) 3,490 5.6 -31.1°
